Location: Dąbrowa Miętka
(51.3714°N, 18.6370°E)
Time: 09:56:40
(UTC+01:00)

ISS - Pass Details

Date: 24 January 2019
Orbit: 403 x 411 km, 51.6° (Epoch: 16 February)

Event Time Altitude Azimuth Distance (km) Brightness Sun altitude
Rises 19:20:05 0° 242° (WSW) 2,332 0.9 -27.6°
Reaches altitude 10° 19:22:11 10° 238° (WSW) 1,475 -0.4 -28.0°
Enters shadow 19:22:45 14° 235° (SW) 1,248 -0.8 -28.1°
